[[{"header":{"parameterUnit":"m.s-1","parameterCategory":2,"la1":30.2991,"la2":30.254,"lo1":-89.0895,"lo2":-89.0444,"dy":0.0017,"dx":0.0017,"nx":28,"ny":28,"refTime":"2024-06-03T09:00:00:Z","depth":"0","parameterNumber":2,"parameterNumberName":"U-component_of_CURRENTS"},"data":[0,0,0,0,0,0,0,0,0,0,0,0,0,0,0,0,0,0,0,0,0,0,0,0,0,0,0,0,0,0,0,0,0,0,0,0,0,0,0,0,0,0,0,0,0,0,0,0,0,0,0,0,0,0,0,0,0,0,0.2911,0.2911,0,0.2943,0.2944,0.2944,0.294,0.294,0.2939,0.2939,0.2945,0.2946,0.2947,0,0,0,0,0,0,0,0,0,0,0,0,0,0.2861,0.2861,0.2911,0.2911,0.2912,0.2943,0.2944,0.2944,0.294,0.294,0.2939,0.2939,0.2945,0.2946,0.2947,0,0,0,0,0,0,0,0,0,0,0,0,0,0.2886,0.2862,0.2911,0.2914,0.2914,0.2943,0.2944,0.2944,0.294,0.294,0.2939,0.2938,0.2945,0.2946,0.2947,0.2967,0,0,0.295,0.295,0,0,0,0,0,0,0,0,0.2885,0.2888,0.2913,0.2914,0.2914,0.2937,0.2928,0.2951,0.2941,0.293,0.2939,0.2938,0.2941,0.2942,0.295,0.2967,0.2968,0.295,0.295,0.2951,0.2951,0,0,0,0,0,0,0,0.2883,0.2887,0.2923,0.2913,0.2914,0.2919,0.2922,0.2933,0.2938,0.2931,0.2931,0.2935,0.2941,0.2949,0.295,0.2968,0.295,0.295,0.2951,0.2951,0.3089,0.3092,0,0,0,0,0,0,0.288,0.2885,0.2922,0.2924,0.2898,0.292,0.2923,0.293,0.2939,0.294,0.2936,0.2935,0.2948,0.2949,0.295,0.3034,0.2951,0.2952,0.2952,0.3086,0.309,0.3093,0,0,0,0,0,0,0.2879,0.2883,0.2921,0.2905,0.2911,0.2922,0.293,0.2931,0.2944,0.2943,0.2943,0.2948,0.2947,0.2949,0.2995,0.3031,0.2952,0.2953,0.3082,0.3087,0.3091,0.3163,0,0,0,0,0,0,0.2877,0.2883,0.2889,0.2905,0.2911,0.2952,0.2931,0.2933,0.2948,0.2947,0.2953,0.2953,0.2947,0.2994,0.2996,0.3031,0.2954,0.3078,0.3084,0.309,0.3157,0.317,0.318,0,0,0,0,0,0.2876,0.2886,0.2889,0.2893,0.2919,0.2953,0.2958,0.2962,0.295,0.2968,0.2986,0.2953,0.3032,0.2997,0.2999,0.3035,0.3076,0.3083,0.3089,0.3151,0.3167,0.318,0,0,0,0,0,0,0.2863,0.2887,0.2891,0.2906,0.2935,0.2953,0.2965,0.297,0.2997,0.2995,0.2989,0.2992,0.3055,0.3041,0.3002,0.3098,0.305,0.3057,0.3096,0.3111,0.3123,0.3128,0.2954,0,0,0,0,0,0.2865,0.2882,0.2908,0.2923,0.2935,0.2952,0.2965,0.2974,0.2998,0.3008,0.3019,0.3041,0.3085,0.3092,0.3127,0.3164,0.3179,0.3193,0.3205,0.3215,0.3225,0.3284,0.3301,0.3116,0.3116,0.3116,0,0,0.2863,0.288,0.2888,0.2923,0.2938,0.298,0.2958,0.2986,0.3031,0.3005,0.3066,0.3088,0.3112,0.3173,0.3197,0.3159,0.3284,0.3224,0.3232,0.3237,0.3293,0.3311,0.3326,0.3121,0.312,0.3119,0,0,0.2878,0.2885,0.2909,0.2939,0.2974,0.2996,0.3008,0.3041,0.3064,0.3126,0.3136,0.3181,0.3227,0.3258,0.3278,0.3375,0.3358,0.3384,0.3427,0.3485,0.35,0.3513,0.358,0.3599,0.3372,0.3372,0.3372,0,0.2876,0.2912,0.2923,0.2962,0.2994,0.3009,0.3056,0.3091,0.314,0.3171,0.3157,0.3262,0.3273,0.3357,0.3398,0.3399,0.3432,0.3364,0.3498,0.3511,0.3523,0.3589,0.3609,0.3376,0.3376,0.3375,0.3375,0,0.292,0.295,0.2968,0.3028,0.3068,0.3107,0.316,0.3207,0.3233,0.3262,0.335,0.3378,0.3431,0.3451,0.3454,0.3553,0.3551,0.3517,0.3453,0.3546,0.361,0.3629,0.3382,0.3381,0.338,0.3378,0,0,0.2904,0.2984,0.2989,0.303,0.3106,0.3143,0.3231,0.331,0.3363,0.3411,0.3479,0.356,0.3553,0.3579,0.3584,0.3629,0.3752,0.3611,0.3612,0.3664,0.3899,0.3831,0.3845,0.3737,0.374,0.3743,0.3917,0,0.2935,0.3014,0.3055,0.3142,0.3188,0.3246,0.3325,0.3399,0.3455,0.3524,0.3559,0.3626,0.3607,0.3633,0.3681,0.3745,0.3803,0.371,0.3814,0.3817,0.3733,0.3865,0.3667,0.3799,0.3935,0.3938,0.3941,0,0.2964,0.3016,0.3099,0.3202,0.3227,0.3285,0.3407,0.3481,0.358,0.3624,0.3684,0.3706,0.3802,0.3752,0.3903,0.3846,0.3887,0.392,0.3926,0.3847,0.3784,0.3726,0.3828,0.3737,0.3969,0.3967,0.3965,0,0.2946,0.3046,0.3113,0.3148,0.3267,0.332,0.3388,0.3499,0.356,0.3679,0.3731,0.3825,0.3886,0.3954,0.4026,0.398,0.4179,0.4115,0.4096,0.4092,0.3936,0.3912,0.3943,0.422,0.4219,0.4219,0.4218,0,0.2963,0.3014,0.3102,0.314,0.3216,0.3308,0.3395,0.3485,0.3592,0.3663,0.3762,0.3837,0.3941,0.4047,0.4085,0.417,0.4233,0.4145,0.4142,0.3959,0.3936,0.3854,0.3809,0.4225,0.4224,0.4222,0.4221,0,0.2932,0.2994,0.3063,0.3173,0.3204,0.3254,0.337,0.3435,0.3562,0.3661,0.3703,0.3882,0.4046,0.4143,0.4285,0.4254,0.4207,0.4332,0.4119,0.4087,0.3933,0.3898,0.3803,0.3693,0.4341,0.4341,0.4341,0,0.292,0.2953,0.305,0.3082,0.3126,0.3205,0.326,0.3391,0.3457,0.3676,0.3717,0.3926,0.4036,0.4245,0.4263,0.4346,0.4219,0.4183,0.4043,0.3934,0.3896,0.374,0.3642,0.3887,0.3883,0.388,0.3877,0,0.2894,0.2924,0.2981,0.3028,0.3078,0.3136,0.3221,0.3258,0.3423,0.353,0.3688,0.3801,0.4019,0.4029,0.4148,0.4156,0.3958,0.4115,0.4054,0.3599,0.338,0.3267,0.3783,0.3847,0.385,0.3852,0.3854,0.3855,0.2853,0.2872,0.2931,0.2967,0.3017,0.3048,0.3051,0.3154,0.3235,0.3359,0.3551,0.3664,0.3772,0.3916,0.3907,0.3775,0.3781,0.3637,0.3631,0.3504,0.3299,0.3761,0.3777,0.3779,0.3781,0.3783,0.3785,0,0.2788,0.2825,0.2868,0.2896,0.2897,0.2955,0.3007,0.2988,0.3026,0.3195,0.3313,0.3403,0.3424,0.349,0.3443,0.3306,0.3132,0.3223,0.2957,0.2906,0.3372,0.3252,0.3088,0.3088,0.3088,0.3088,0.3088,0.3088,0.276,0.2773,0.2791,0.2758,0.2772,0.2718,0.2713,0.2714,0.2783,0.2838,0.2889,0.3011,0.3163,0.3187,0.306,0.2984,0.2757,0.2607,0.2654,0.2987,0.3024,0.3059,0.2936,0.2709,0.2708,0.2019,0.2014,0.201]},{"header":{"parameterUnit":"m.s-1","parameterCategory":2,"la1":30.2991,"la2":30.254,"lo1":-89.0895,"lo2":-89.0444,"dy":0.0017,"dx":0.0017,"nx":28,"ny":28,"refTime":"2024-06-03T09:00:00:Z","depth":"0","parameterNumber":3,"parameterNumberName":"V-component_of_CURRENTS"},"data":[0,0,0,0,0,0,0,0,0,0,0,0,0,0,0,0,0,0,0,0,0,0,0,0,0,0,0,0,0,0,0,0,0,0,0,0,0,0,0,0,0,0,0,0,0,0,0,0,0,0,0,0,0,0,0,0,0,0,0.0094,0.0094,0,0.0033,0.0033,0.0032,-0.0007,-0.0007,-0.0007,-0.0008,-0.008,-0.0082,-0.0084,0,0,0,0,0,0,0,0,0,0,0,0,0,0.0133,0.0133,0.0094,0.0094,0.0093,0.0034,0.0033,0.0032,-0.0007,-0.0007,-0.0007,-0.0008,-0.008,-0.0082,-0.0084,0,0,0,0,0,0,0,0,0,0,0,0,0,0.0098,0.0133,0.0094,0.0067,0.0064,0.0034,0.0033,0.0031,-0.0007,-0.0007,-0.0008,-0.0008,-0.0079,-0.0082,-0.0084,-0.0097,0,0,-0.0093,-0.0094,0,0,0,0,0,0,0,0,0.01,0.0096,0.0072,0.0069,0.0066,0.0021,0.002,-0.0012,-0.0007,0.0019,-0.0008,-0.0008,-0.0046,-0.0052,-0.0064,-0.01,-0.0103,-0.0093,-0.0094,-0.0096,-0.0096,0,0,0,0,0,0,0,0.0102,0.0098,0.0069,0.0071,0.0068,0.0043,0.0038,0.0013,-0.0013,0.0017,0.0014,0.0009,-0.0048,-0.0062,-0.0066,-0.0104,-0.0093,-0.0095,-0.0097,-0.0098,-0.0169,-0.0169,0,0,0,0,0,0,0.0115,0.0101,0.0071,0.0067,0.0084,0.0043,0.0037,0.0035,-0.0013,-0.002,0.0009,0.0007,-0.0057,-0.0063,-0.0069,-0.0074,-0.0096,-0.0098,-0.01,-0.0169,-0.0169,-0.0169,0,0,0,0,0,0,0.0116,0.0113,0.0074,0.0083,0.0077,0.0043,0.004,0.0034,0.0023,-0.0018,-0.0025,0.0005,-0.0057,-0.0065,-0.0086,-0.0077,-0.0099,-0.0102,-0.0168,-0.0169,-0.0169,-0.0091,0,0,0,0,0,0,0.0117,0.0114,0.0116,0.0085,0.0077,0.0064,0.004,0.0033,0.0021,0.0018,-0.0024,-0.0031,-0.0058,-0.0082,-0.0089,-0.0081,-0.0104,-0.0168,-0.0169,-0.0169,-0.0094,-0.0089,-0.0085,0,0,0,0,0,0.0119,0.0124,0.0117,0.0113,0.0082,0.0065,0.0059,0.0032,0.0021,0.0021,-0.0008,-0.0029,-0.0091,-0.0084,-0.0092,-0.0085,-0.0168,-0.0168,-0.0169,-0.0095,-0.009,-0.0085,0,0,0,0,0,0,0.0141,0.0119,0.0111,0.0109,0.0093,0.0059,0.0055,0.0038,0.0014,0.0012,-0.0028,-0.0037,-0.0054,-0.0084,-0.0076,-0.0111,-0.0135,-0.0137,-0.0076,-0.0071,-0.0067,-0.0023,-0.0106,0,0,0,0,0,0.0149,0.0149,0.0124,0.0125,0.0117,0.0088,0.0077,0.0063,0.0037,0.0026,-0.0002,-0.0036,-0.0065,-0.0078,-0.0108,-0.0122,-0.0124,-0.0127,-0.0122,-0.0118,-0.009,-0.0092,-0.0084,-0.0171,-0.0171,-0.0171,0,0,0.0157,0.0147,0.0146,0.013,0.0114,0.0114,0.0081,0.0072,0.0076,0.0023,0.0018,-0.0021,-0.0066,-0.0082,-0.0093,-0.0103,-0.0097,-0.0119,-0.0115,-0.0088,-0.0092,-0.0083,-0.0075,-0.0172,-0.0172,-0.0172,0,0,0.0183,0.0167,0.0179,0.0169,0.0154,0.0136,0.0137,0.0108,0.0099,0.0086,0.0048,0.0023,-0.0024,-0.0047,-0.0067,-0.0058,-0.0075,-0.008,-0.0018,-0.0021,-0.0012,-0.0005,0.0006,0.0014,-0.0077,-0.0076,-0.0076,0,0.0198,0.021,0.018,0.0191,0.0194,0.0151,0.0171,0.015,0.0121,0.0131,0.0095,0.0047,-0.0002,-0.0004,-0.0009,-0.0044,-0.0043,-0.0029,-0.0011,-0.0004,0.0002,0.0012,0.002,-0.0073,-0.0073,-0.0074,-0.0074,0,0.0232,0.0244,0.0249,0.0253,0.025,0.0257,0.0233,0.0232,0.0211,0.0198,0.0192,0.0126,0.0109,0.0071,0.0032,0.0048,0.0037,-0.0003,-0.0013,0.0017,0.0024,0.0031,-0.0067,-0.0069,-0.007,-0.0071,0,0,0.0268,0.0275,0.0281,0.0307,0.0287,0.0299,0.0306,0.0318,0.0354,0.0299,0.0342,0.0261,0.0238,0.0214,0.0156,0.0139,0.0165,0.0094,0.0092,0.0126,0.018,0.0147,0.015,0.0132,0.0133,0.0134,0.017,0,0.0311,0.0359,0.0345,0.0397,0.0422,0.0399,0.0421,0.0426,0.0419,0.0446,0.0381,0.0388,0.0288,0.029,0.0255,0.0197,0.0185,0.0161,0.0129,0.0128,0.0112,0.0158,0.0135,0.0162,0.0176,0.0177,0.0178,0,0.0355,0.0387,0.0447,0.0499,0.051,0.0535,0.0592,0.0607,0.062,0.0618,0.0607,0.0562,0.0536,0.044,0.0371,0.0364,0.0288,0.0226,0.0225,0.0179,0.0108,0.0131,0.0173,0.0015,0.0187,0.0187,0.0186,0,0.0416,0.0464,0.0525,0.0536,0.0576,0.0619,0.0645,0.0672,0.0718,0.0744,0.0788,0.0731,0.0735,0.0625,0.049,0.0443,0.042,0.0335,0.0236,0.0233,0.0201,0.0193,0.0107,0.0296,0.0296,0.0296,0.0295,0,0.047,0.0524,0.0567,0.0604,0.0701,0.0703,0.0808,0.0826,0.0879,0.0968,0.0893,0.0956,0.0784,0.0738,0.0576,0.045,0.0491,0.0277,0.0247,0.0225,0.0219,0.0067,-0.0029,0.0297,0.0297,0.0296,0.0296,0,0.0528,0.0548,0.063,0.07,0.0733,0.0807,0.0911,0.0988,0.1027,0.1145,0.1165,0.1154,0.1105,0.0926,0.0777,0.0592,0.0354,0.0387,0.0381,0.0349,0.0071,-0.002,-0.0111,-0.0185,0.0284,0.0283,0.0283,0,0.0563,0.061,0.0708,0.0772,0.0812,0.0918,0.0997,0.1056,0.1146,0.1276,0.1347,0.1349,0.1371,0.1144,0.0833,0.0576,0.0388,0.0356,0.0238,0.0082,-0.0041,-0.0105,-0.0166,0.023,0.0229,0.0229,0.0228,0,0.0641,0.0672,0.0742,0.0864,0.0963,0.1072,0.1193,0.1284,0.138,0.1499,0.1651,0.1689,0.1489,0.1236,0.0867,0.0651,0.0231,0.0332,0.0174,-0.0075,-0.0151,-0.0244,0.0188,0.0222,0.0223,0.0223,0.0223,0.0224,0.0709,0.0768,0.0857,0.0974,0.1081,0.1214,0.1321,0.146,0.163,0.1818,0.1857,0.1942,0.1562,0.1066,0.0778,0.0203,0.0202,-0.0011,-0.0098,-0.014,-0.0245,0.0183,0.0171,0.0171,0.0171,0.0171,0.0171,0,0.0792,0.0854,0.0964,0.1102,0.1218,0.126,0.1444,0.1562,0.1774,0.1948,0.2089,0.1944,0.1473,0.0972,0.0221,-0.0163,-0.0306,-0.0377,-0.0483,-0.052,-0.0132,-0.0171,-0.0261,-0.0261,-0.0261,-0.0261,-0.026,-0.026,0.0843,0.0955,0.1002,0.1196,0.129,0.1451,0.1556,0.1737,0.1885,0.209,0.214,0.2155,0.1762,0.0509,-0.0354,-0.0561,-0.0791,-0.0861,-0.0961,-0.0724,-0.0697,-0.0671,-0.073,-0.0936,-0.0937,-0.1315,-0.1319,-0.1322]}],[{"header":{"parameterUnit":"m.s-1","parameterCategory":2,"la1":30.2991,"la2":30.254,"lo1":-89.0895,"lo2":-89.0444,"dy":0.0017,"dx":0.0017,"nx":28,"ny":28,"refTime":"2024-06-03T09:00:00:Z","depth":"2","parameterNumber":2,"parameterNumberName":"U-component_of_CURRENTS"},"data":[0,0,0,0,0,0,0,0,0,0,0,0,0,0,0,0,0,0,0,0,0,0,0,0,0,0,0,0,0,0,0,0,0,0,0,0,0,0,0,0,0,0,0,0,0,0,0,0,0,0,0,0,0,0,0,0,0,0,0.2521,0.2522,0,0.2569,0.2569,0.257,0.2549,0.2548,0.2547,0.2547,0.2565,0.2567,0.2568,0,0,0,0,0,0,0,0,0,0,0,0,0,0.249,0.249,0.2521,0.2522,0.2523,0.2569,0.2569,0.257,0.2549,0.2548,0.2547,0.2546,0.2565,0.2566,0.2568,0,0,0,0,0,0,0,0,0,0,0,0,0,0.2515,0.249,0.2521,0.252,0.2521,0.2569,0.2569,0.257,0.255,0.2548,0.2547,0.2546,0.2564,0.2566,0.2568,0.2608,0,0,0.2574,0.2575,0,0,0,0,0,0,0,0,0.2513,0.2516,0.2519,0.252,0.2521,0.2554,0.2566,0.2582,0.255,0.2536,0.2546,0.2545,0.2562,0.2564,0.2572,0.2609,0.261,0.2575,0.2576,0.2577,0.2577,0,0,0,0,0,0,0,0.2512,0.2514,0.2537,0.2521,0.2522,0.2545,0.2546,0.2569,0.2553,0.2537,0.2536,0.2546,0.2561,0.2571,0.2573,0.261,0.2575,0.2576,0.2578,0.2578,0.2727,0.273,0,0,0,0,0,0,0.2509,0.2512,0.2536,0.2539,0.2517,0.2546,0.2547,0.2543,0.2553,0.2555,0.2548,0.2545,0.2568,0.257,0.2573,0.2671,0.2577,0.2579,0.258,0.2725,0.2728,0.2731,0,0,0,0,0,0,0.2508,0.251,0.2534,0.253,0.2535,0.2548,0.2543,0.2544,0.2561,0.2562,0.2562,0.2564,0.2567,0.257,0.2614,0.267,0.258,0.2581,0.2721,0.2726,0.2729,0.2835,0,0,0,0,0,0,0.2506,0.2509,0.2514,0.2529,0.2535,0.2562,0.2545,0.2546,0.257,0.2568,0.2577,0.2577,0.2566,0.2611,0.2616,0.2671,0.2583,0.2718,0.2723,0.2728,0.2828,0.2842,0.2854,0,0,0,0,0,0.2505,0.252,0.2513,0.2517,0.2537,0.2563,0.2568,0.2572,0.2573,0.2582,0.2602,0.2577,0.2647,0.2615,0.262,0.2677,0.2715,0.2722,0.2728,0.2822,0.284,0.2854,0,0,0,0,0,0,0.2508,0.2521,0.2513,0.2529,0.2543,0.256,0.2585,0.2586,0.261,0.2614,0.2611,0.2613,0.266,0.2663,0.2628,0.2736,0.2679,0.2686,0.2749,0.2765,0.2778,0.2788,0.2585,0,0,0,0,0,0.2512,0.2527,0.2535,0.2551,0.2563,0.2577,0.2594,0.2592,0.2614,0.2623,0.2636,0.2662,0.2692,0.2722,0.2728,0.2805,0.2801,0.2845,0.2859,0.287,0.2883,0.2919,0.2936,0.2751,0.2751,0.2751,0,0,0.2515,0.253,0.2535,0.2554,0.2571,0.2601,0.2583,0.2611,0.2664,0.2624,0.2703,0.2691,0.2713,0.2779,0.2806,0.2795,0.2926,0.2878,0.2887,0.2894,0.2927,0.2945,0.2961,0.2755,0.2755,0.2754,0,0,0.2538,0.2547,0.2566,0.2582,0.261,0.263,0.2642,0.2666,0.2707,0.2767,0.2757,0.2788,0.2839,0.2873,0.2898,0.2997,0.2971,0.3001,0.3107,0.3142,0.3157,0.317,0.3208,0.3224,0.3037,0.3037,0.3037,0,0.2544,0.2565,0.2577,0.2603,0.2636,0.2648,0.2684,0.2739,0.2778,0.2817,0.2802,0.2874,0.2891,0.2988,0.3033,0.3028,0.3039,0.3043,0.3158,0.3171,0.3183,0.3218,0.3234,0.3043,0.3042,0.3041,0.3041,0,0.2569,0.2597,0.262,0.2662,0.2698,0.2733,0.2798,0.284,0.2885,0.2922,0.3002,0.3028,0.3065,0.3093,0.3106,0.3211,0.3188,0.3145,0.3114,0.3208,0.3239,0.3254,0.3051,0.3049,0.3047,0.3046,0,0,0.2563,0.2624,0.2634,0.2669,0.2733,0.2767,0.2867,0.295,0.3015,0.3066,0.3148,0.3231,0.3218,0.3247,0.3262,0.3328,0.3437,0.3298,0.3297,0.3329,0.3524,0.3412,0.3416,0.3411,0.3413,0.3416,0.3519,0,0.2586,0.2647,0.268,0.2762,0.2805,0.2853,0.2948,0.3023,0.3095,0.3174,0.3235,0.3306,0.3296,0.3322,0.3385,0.3417,0.3478,0.3414,0.3434,0.3435,0.3318,0.343,0.3168,0.3229,0.3533,0.3535,0.3537,0,0.2605,0.2649,0.2722,0.2823,0.2848,0.2903,0.3029,0.313,0.3241,0.3274,0.3336,0.3368,0.3495,0.3449,0.3574,0.3533,0.3544,0.3563,0.3565,0.3431,0.3349,0.3182,0.3243,0.356,0.3558,0.3557,0.3555,0,0.2603,0.2694,0.2762,0.279,0.2891,0.2947,0.3038,0.3153,0.3247,0.3361,0.3386,0.3494,0.3565,0.3608,0.3667,0.363,0.3773,0.371,0.3616,0.3609,0.3374,0.334,0.3774,0.3774,0.3774,0.3773,0.3773,0,0.262,0.2679,0.2766,0.2791,0.2882,0.2983,0.3099,0.3168,0.3294,0.3378,0.3461,0.3514,0.3609,0.3693,0.3709,0.3727,0.3805,0.366,0.3636,0.3405,0.3374,0.3638,0.3621,0.3777,0.3776,0.3776,0.3775,0,0.2605,0.2661,0.273,0.2833,0.2875,0.2958,0.3116,0.3188,0.3316,0.3421,0.3464,0.3582,0.3666,0.3737,0.3823,0.378,0.3805,0.3775,0.3506,0.3447,0.3606,0.3593,0.3688,0.3685,0.3683,0.3681,0.3679,0,0.2593,0.2624,0.2728,0.2768,0.2817,0.2948,0.3015,0.3164,0.3257,0.3439,0.3484,0.3608,0.3619,0.372,0.3691,0.3694,0.3756,0.344,0.3309,0.3635,0.3602,0.3593,0.3584,0.3058,0.3051,0.3046,0.3041,0,0.256,0.2602,0.2657,0.2727,0.2795,0.2875,0.3019,0.3055,0.3236,0.33,0.3398,0.3433,0.3517,0.3392,0.3409,0.3372,0.3419,0.3325,0.3758,0.3106,0.3044,0.3011,0.3022,0.2993,0.2998,0.3001,0.3004,0.3006,0.2525,0.2554,0.2623,0.2702,0.2773,0.2813,0.2802,0.2923,0.2993,0.3045,0.3185,0.313,0.3163,0.3023,0.295,0.2921,0.3133,0.2996,0.3012,0.3033,0.2928,0.2863,0.276,0.2763,0.2766,0.2769,0.2771,0,0.2469,0.2545,0.2597,0.2653,0.2663,0.2738,0.2803,0.2724,0.2706,0.2786,0.2803,0.2542,0.2468,0.2521,0.2404,0.241,0.238,0.2308,0.2248,0.23,0.2345,0.2202,0.1843,0.1839,0.1836,0.1833,0,0,0.2451,0.2475,0.2519,0.2534,0.2566,0.25,0.2471,0.2366,0.238,0.2244,0.2215,0.2325,0.2442,0.2083,0.2056,0.1933,0.2092,0.186,0.2614,0.2596,0.2636,0.2764,0.2604,0,0,0,0,0]},{"header":{"parameterUnit":"m.s-1","parameterCategory":2,"la1":30.2991,"la2":30.254,"lo1":-89.0895,"lo2":-89.0444,"dy":0.0017,"dx":0.0017,"nx":28,"ny":28,"refTime":"2024-06-03T09:00:00:Z","depth":"2","parameterNumber":3,"parameterNumberName":"V-component_of_CURRENTS"},"data":[0,0,0,0,0,0,0,0,0,0,0,0,0,0,0,0,0,0,0,0,0,0,0,0,0,0,0,0,0,0,0,0,0,0,0,0,0,0,0,0,0,0,0,0,0,0,0,0,0,0,0,0,0,0,0,0,0,0,-0.0035,-0.0035,0,-0.0082,-0.0082,-0.0083,-0.011,-0.011,-0.011,-0.011,-0.0163,-0.0165,-0.0166,0,0,0,0,0,0,0,0,0,0,0,0,0,-0.0,-0.0001,-0.0035,-0.0035,-0.0036,-0.0082,-0.0082,-0.0083,-0.0109,-0.011,-0.011,-0.011,-0.0163,-0.0164,-0.0166,0,0,0,0,0,0,0,0,0,0,0,0,0,-0.0028,-0.0001,-0.0034,-0.0054,-0.0056,-0.0081,-0.0082,-0.0083,-0.0109,-0.011,-0.011,-0.011,-0.0162,-0.0164,-0.0166,-0.0178,0,0,-0.0173,-0.0174,0,0,0,0,0,0,0,0,-0.0027,-0.003,-0.0051,-0.0053,-0.0055,-0.0089,-0.009,-0.0115,-0.0109,-0.009,-0.011,-0.011,-0.0139,-0.0143,-0.0152,-0.018,-0.0183,-0.0173,-0.0174,-0.0175,-0.0176,0,0,0,0,0,0,0,-0.0025,-0.0028,-0.0054,-0.0051,-0.0054,-0.0072,-0.0075,-0.0095,-0.0114,-0.0092,-0.0093,-0.0098,-0.014,-0.015,-0.0154,-0.0184,-0.0173,-0.0175,-0.0176,-0.0177,-0.0217,-0.0217,0,0,0,0,0,0,-0.0016,-0.0026,-0.0052,-0.0055,-0.004,-0.0072,-0.0076,-0.0079,-0.0114,-0.0119,-0.0098,-0.0099,-0.0146,-0.0151,-0.0156,-0.0153,-0.0175,-0.0177,-0.0178,-0.0217,-0.0217,-0.0217,0,0,0,0,0,0,-0.0015,-0.0018,-0.005,-0.0041,-0.0047,-0.0072,-0.0075,-0.008,-0.0086,-0.0118,-0.0124,-0.0099,-0.0147,-0.0153,-0.0167,-0.0156,-0.0178,-0.018,-0.0217,-0.0217,-0.0217,-0.0159,0,0,0,0,0,0,-0.0014,-0.0017,-0.0016,-0.0041,-0.0047,-0.0057,-0.0075,-0.008,-0.0088,-0.009,-0.0121,-0.0126,-0.0147,-0.0164,-0.0169,-0.0159,-0.0181,-0.0218,-0.0217,-0.0217,-0.0161,-0.0157,-0.0153,0,0,0,0,0,-0.0013,-0.0008,-0.0015,-0.0018,-0.0044,-0.0056,-0.0061,-0.008,-0.0088,-0.0087,-0.0108,-0.0125,-0.0165,-0.0165,-0.0171,-0.0162,-0.0218,-0.0217,-0.0217,-0.0163,-0.0158,-0.0153,0,0,0,0,0,0,0.0008,-0.0011,-0.0019,-0.0021,-0.0034,-0.006,-0.0062,-0.0075,-0.0091,-0.0092,-0.0123,-0.013,-0.0137,-0.016,-0.0159,-0.0174,-0.0194,-0.0195,-0.0151,-0.0147,-0.0143,-0.0102,-0.0183,0,0,0,0,0,0.0014,0.0014,-0.0008,-0.0007,-0.0013,-0.0036,-0.0044,-0.0054,-0.0073,-0.008,-0.0102,-0.0125,-0.0142,-0.0151,-0.017,-0.0179,-0.0194,-0.0178,-0.0174,-0.017,-0.0142,-0.0161,-0.0156,-0.0215,-0.0215,-0.0215,0,0,0.0021,0.0013,0.0012,-0.0002,-0.0015,-0.0015,-0.004,-0.0045,-0.0042,-0.0083,-0.0086,-0.011,-0.0141,-0.0148,-0.0154,-0.0165,-0.0165,-0.017,-0.0166,-0.014,-0.016,-0.0154,-0.0149,-0.0215,-0.0215,-0.0215,0,0,0.0042,0.003,0.0038,0.0031,0.0019,0.0005,0.0007,-0.0015,-0.0021,-0.0031,-0.0056,-0.0065,-0.0104,-0.0112,-0.0124,-0.0109,-0.0142,-0.0127,-0.0073,-0.0093,-0.0087,-0.0083,-0.0107,-0.0105,-0.0126,-0.0126,-0.0126,0,0.0054,0.0061,0.0039,0.0045,0.005,0.0018,0.0034,0.0017,-0.0005,0.0012,-0.0024,-0.0048,-0.008,-0.007,-0.0068,-0.0096,-0.0118,-0.0089,-0.0085,-0.0081,-0.0077,-0.0104,-0.0102,-0.0123,-0.0124,-0.0124,-0.0124,0,0.0078,0.0086,0.0091,0.0092,0.0092,0.0101,0.0082,0.0086,0.007,0.0066,0.0071,0.0021,0.0019,-0.0008,-0.0036,-0.002,-0.0048,-0.0077,-0.0093,-0.0067,-0.0098,-0.0097,-0.0119,-0.012,-0.0121,-0.0122,0,0,0.0107,0.0109,0.0114,0.0135,0.0124,0.0135,0.0144,0.0164,0.0199,0.0156,0.0192,0.0147,0.0134,0.012,0.0077,0.0052,0.0044,0.0003,0.0001,-0.0011,-0.0004,-0.0048,-0.0052,0.001,0.0011,0.0011,-0.004,0,0.0139,0.0174,0.0163,0.0205,0.0226,0.0216,0.0236,0.0251,0.0253,0.0275,0.0233,0.0243,0.0175,0.0176,0.0142,0.008,0.005,0.0061,-0.0034,-0.0036,-0.007,-0.0051,-0.0021,-0.0066,-0.004,-0.004,-0.004,0,0.0171,0.0196,0.0244,0.0289,0.0299,0.0321,0.0382,0.0399,0.0421,0.0419,0.042,0.0384,0.0362,0.0283,0.0197,0.0204,0.0115,0.0048,0.0043,-0.0008,-0.0078,-0.0085,-0.0066,-0.0039,-0.0039,-0.0039,-0.0039,0,0.0222,0.0258,0.0309,0.032,0.0355,0.0395,0.0424,0.0463,0.0511,0.0527,0.0559,0.0509,0.0495,0.0386,0.0252,0.0226,0.014,0.0083,-0.0041,-0.0047,-0.0041,-0.0047,0.0019,0.002,0.002,0.002,0.002,0,0.0265,0.0307,0.0344,0.0374,0.0458,0.0467,0.0568,0.0582,0.0635,0.0713,0.065,0.0682,0.052,0.0449,0.0301,0.0145,0.0179,-0.0014,-0.0054,-0.0024,-0.0028,-0.0018,-0.0021,0.0018,0.0018,0.0019,0.0019,0,0.0309,0.0325,0.0391,0.0452,0.0483,0.0551,0.0657,0.0727,0.0766,0.0859,0.0871,0.0825,0.0717,0.0544,0.0366,0.0223,0.0067,-0.0003,0.004,0.0005,-0.0124,-0.0124,-0.0145,-0.0147,-0.0149,-0.015,-0.0151,0,0.0335,0.0371,0.0455,0.0511,0.0545,0.0649,0.0722,0.0783,0.0873,0.0955,0.1006,0.0932,0.0883,0.0605,0.0341,0.008,0.0042,-0.0064,-0.0114,-0.0099,-0.0137,-0.0135,-0.0133,-0.0092,-0.0093,-0.0093,-0.0093,0,0.0392,0.0417,0.0473,0.058,0.0666,0.0775,0.0896,0.0973,0.1061,0.1142,0.1218,0.1184,0.0914,0.0655,0.0291,0.0114,-0.0023,-0.0084,-0.0056,-0.0061,-0.0055,-0.009,-0.0089,-0.0097,-0.0097,-0.0096,-0.0096,-0.0096,0.0437,0.0484,0.0557,0.0662,0.0771,0.09,0.0983,0.1113,0.1249,0.1357,0.1333,0.1285,0.0997,0.0513,0.0225,-0.0073,-0.0076,-0.0181,-0.0177,-0.0173,-0.0163,-0.0161,-0.0221,-0.0222,-0.0222,-0.0222,-0.0222,0,0.0488,0.0544,0.0639,0.0762,0.0876,0.093,0.11,0.1166,0.132,0.1415,0.1457,0.1164,0.088,0.0554,0.0115,-0.0158,-0.0169,-0.0249,-0.0191,-0.0185,-0.0181,-0.017,-0.0231,-0.0231,-0.0232,-0.0233,0,0,0.052,0.0602,0.065,0.0835,0.0927,0.1073,0.116,0.126,0.1356,0.1412,0.1415,0.1334,0.0966,0.0639,0.0273,0.0033,-0.0016,-0.0025,0.0011,0.0129,0.0137,-0.0114,-0.0088,0,0,0,0,0]}],[{"header":{"parameterUnit":"m.s-1","parameterCategory":2,"la1":30.2991,"la2":30.254,"lo1":-89.0895,"lo2":-89.0444,"dy":0.0017,"dx":0.0017,"nx":28,"ny":28,"refTime":"2024-06-03T09:00:00:Z","depth":"4","parameterNumber":2,"parameterNumberName":"U-component_of_CURRENTS"},"data":[0,0,0,0,0,0,0,0,0,0,0,0,0,0,0,0,0,0,0,0,0,0,0,0,0,0,0,0,0,0,0,0,0,0,0,0,0,0,0,0,0,0,0,0,0,0,0,0,0,0,0,0,0,0,0,0,0,0,0.1513,0.1513,0,0.1542,0.1542,0.1542,0.1597,0.1598,0.1599,0.16,0.1663,0.1664,0.1665,0,0,0,0,0,0,0,0,0,0,0,0,0,0.1482,0.1483,0.1513,0.1513,0.1513,0.1541,0.1542,0.1542,0.1597,0.1598,0.1599,0.16,0.1663,0.1664,0.1665,0,0,0,0,0,0,0,0,0,0,0,0,0,0.1503,0.1483,0.1513,0.1543,0.1546,0.1541,0.1542,0.1543,0.1596,0.1598,0.1599,0.16,0.1663,0.1664,0.1665,0.1644,0,0,0.1669,0.1669,0,0,0,0,0,0,0,0,0.1502,0.1504,0.1538,0.1541,0.1544,0.1566,0.1555,0.1578,0.1596,0.1578,0.16,0.1601,0.1632,0.1636,0.1639,0.1647,0.1649,0.1669,0.167,0.167,0.1671,0,0,0,0,0,0,0,0.15,0.1503,0.1525,0.1538,0.1542,0.1547,0.1552,0.1559,0.1598,0.158,0.1584,0.1585,0.1635,0.1638,0.1641,0.165,0.1669,0.167,0.1671,0.1671,0.1738,0.1739,0,0,0,0,0,0,0.1494,0.1501,0.1524,0.1526,0.1525,0.1547,0.1552,0.1558,0.1598,0.1604,0.1583,0.1587,0.1635,0.164,0.1644,0.1695,0.167,0.1671,0.1672,0.1737,0.1739,0.174,0,0,0,0,0,0,0.1493,0.1496,0.1523,0.1513,0.1517,0.1546,0.1552,0.1558,0.1593,0.16,0.1608,0.1616,0.1637,0.1642,0.1663,0.1695,0.1672,0.1673,0.1736,0.1738,0.1739,0.1751,0,0,0,0,0,0,0.1492,0.1496,0.1513,0.1513,0.1517,0.1535,0.1551,0.1558,0.1589,0.1595,0.1629,0.1635,0.1638,0.1661,0.1664,0.1697,0.1674,0.1735,0.1737,0.1739,0.1749,0.1752,0.1755,0,0,0,0,0,0.1491,0.1496,0.1514,0.1517,0.1536,0.1535,0.1538,0.1563,0.1589,0.1602,0.1621,0.1635,0.1677,0.1662,0.1666,0.1699,0.1734,0.1736,0.1739,0.1747,0.1752,0.1755,0,0,0,0,0,0,0.1493,0.1501,0.1521,0.1531,0.1543,0.1544,0.1561,0.1578,0.1603,0.1623,0.1633,0.1639,0.1676,0.1682,0.1665,0.1727,0.1715,0.1718,0.172,0.1724,0.1727,0.1767,0.1675,0,0,0,0,0,0.1501,0.1511,0.1519,0.1532,0.154,0.1559,0.157,0.1588,0.1601,0.1616,0.1639,0.1665,0.1683,0.1698,0.1715,0.1736,0.177,0.1766,0.1769,0.1772,0.1808,0.1872,0.1885,0.1748,0.1748,0.1748,0,0,0.1508,0.1513,0.1523,0.1534,0.1551,0.1554,0.1571,0.1593,0.1602,0.1617,0.1652,0.1678,0.1691,0.1719,0.1738,0.1731,0.1824,0.1775,0.1777,0.1812,0.1876,0.1889,0.1901,0.1749,0.1749,0.1749,0,0,0.1509,0.1533,0.154,0.1548,0.157,0.1573,0.1586,0.1607,0.1629,0.1651,0.1673,0.1726,0.1738,0.1769,0.1779,0.1813,0.1839,0.1816,0.1864,0.1925,0.1937,0.1948,0.1986,0.2,0.1817,0.1817,0.1817,0,0.1525,0.1526,0.1543,0.1546,0.1555,0.1583,0.1591,0.1603,0.1632,0.1674,0.1669,0.1764,0.1769,0.183,0.1837,0.1825,0.1853,0.1841,0.193,0.1942,0.1953,0.1989,0.2005,0.1818,0.1818,0.1818,0.1818,0,0.1518,0.1531,0.1535,0.1549,0.1561,0.1571,0.1587,0.1629,0.1664,0.1697,0.1786,0.1804,0.1884,0.1877,0.1859,0.195,0.1939,0.1924,0.192,0.1968,0.2002,0.2019,0.1819,0.1819,0.1819,0.1818,0,0,0.1514,0.153,0.1531,0.1549,0.1566,0.1576,0.1609,0.166,0.1725,0.1771,0.1863,0.1899,0.1969,0.1988,0.1996,0.2033,0.2111,0.2012,0.2015,0.205,0.2235,0.2067,0.2069,0.2107,0.211,0.2113,0.2218,0,0.1508,0.151,0.152,0.1539,0.1545,0.1593,0.1624,0.1687,0.1749,0.1843,0.1916,0.2,0.1988,0.2046,0.2088,0.2108,0.216,0.2084,0.2185,0.2189,0.2034,0.2085,0.2124,0.223,0.2234,0.2237,0.2239,0,0.1485,0.1493,0.1504,0.1554,0.1568,0.16,0.1702,0.1731,0.1863,0.193,0.2058,0.2117,0.2218,0.2184,0.2292,0.2243,0.2263,0.2264,0.2267,0.2129,0.2052,0.2179,0.2269,0.2266,0.2264,0.2262,0.226,0,0.1453,0.1479,0.1493,0.1503,0.1562,0.1623,0.1675,0.1791,0.1843,0.2016,0.2099,0.2233,0.2309,0.2368,0.2383,0.2357,0.2467,0.2433,0.2312,0.2299,0.2415,0.2402,0.2535,0.2535,0.2535,0.2534,0.2534,0,0.1409,0.1424,0.1499,0.1508,0.1572,0.1629,0.1714,0.1814,0.1945,0.2015,0.2162,0.2235,0.2358,0.2424,0.2434,0.2414,0.2527,0.2345,0.2325,0.2411,0.2397,0.2425,0.241,0.2538,0.2537,0.2537,0.2536,0,0.1346,0.1382,0.142,0.1517,0.1554,0.161,0.1719,0.1784,0.1928,0.2029,0.2094,0.2269,0.2356,0.2438,0.2523,0.2459,0.2466,0.2436,0.2526,0.2505,0.2251,0.2236,0.2329,0.2324,0.232,0.2317,0.2314,0,0.1306,0.1316,0.1423,0.1451,0.1502,0.1577,0.1631,0.1774,0.1823,0.2008,0.2048,0.221,0.2298,0.2299,0.2392,0.2435,0.2404,0.2399,0.2329,0.2264,0.2236,0.2228,0.2219,0.2307,0.2306,0.2305,0.2304,0,0.1229,0.1285,0.131,0.1381,0.1451,0.1488,0.1574,0.1604,0.1743,0.1893,0.1963,0.2035,0.2127,0.22,0.2252,0.2269,0.2393,0.2356,0.2364,0.2299,0.2239,0.2213,0.2209,0.229,0.2292,0.2293,0.2294,0,0.1178,0.1178,0.1224,0.1279,0.1341,0.1366,0.1434,0.1483,0.1552,0.1759,0.1767,0.194,0.2084,0.2114,0.2149,0.2166,0.2143,0.207,0.2093,0.211,0.1989,0.1877,0.1821,0,0,0,0,0,0.1111,0.1078,0.1113,0.1147,0.1208,0.1257,0.1362,0.1429,0.1567,0.1575,0.1664,0.1741,0.1831,0.1923,0.1902,0.2064,0.2151,0.203,0.2078,0.2211,0.2228,0.2104,0,0,0,0,0,0,0.105,0.1047,0.1057,0.1015,0.1026,0.1081,0.1153,0.1274,0.1269,0.1431,0.1494,0.1622,0.1742,0.182,0.1862,0.189,0.1882,0.2137,0.2133,0.2202,0.2217,0.223,0.2108,0,0,0,0,0]},{"header":{"parameterUnit":"m.s-1","parameterCategory":2,"la1":30.2991,"la2":30.254,"lo1":-89.0895,"lo2":-89.0444,"dy":0.0017,"dx":0.0017,"nx":28,"ny":28,"refTime":"2024-06-03T09:00:00:Z","depth":"4","parameterNumber":3,"parameterNumberName":"V-component_of_CURRENTS"},"data":[0,0,0,0,0,0,0,0,0,0,0,0,0,0,0,0,0,0,0,0,0,0,0,0,0,0,0,0,0,0,0,0,0,0,0,0,0,0,0,0,0,0,0,0,0,0,0,0,0,0,0,0,0,0,0,0,0,0,0.0001,0.0001,0,-0.0017,-0.0017,-0.0017,-0.0038,-0.0038,-0.0038,-0.0039,-0.0058,-0.0058,-0.0058,0,0,0,0,0,0,0,0,0,0,0,0,0,0.001,0.001,0.0001,0.0001,0.0001,-0.0017,-0.0017,-0.0017,-0.0038,-0.0038,-0.0038,-0.0039,-0.0057,-0.0058,-0.0058,0,0,0,0,0,0,0,0,0,0,0,0,0,0.0001,0.001,0.0001,-0.0012,-0.0013,-0.0017,-0.0017,-0.0017,-0.0038,-0.0038,-0.0038,-0.0039,-0.0057,-0.0058,-0.0058,-0.0052,0,0,-0.0059,-0.0059,0,0,0,0,0,0,0,0,0.0001,0.0,-0.001,-0.0011,-0.0012,-0.0025,-0.0021,-0.0029,-0.0038,-0.0029,-0.0039,-0.0039,-0.0046,-0.0048,-0.005,-0.0053,-0.0053,-0.0059,-0.0059,-0.006,-0.006,0,0,0,0,0,0,0,0.0002,0.0001,-0.0006,-0.001,-0.0011,-0.0019,-0.002,-0.0022,-0.0035,-0.0029,-0.0031,-0.0032,-0.0047,-0.005,-0.0051,-0.0054,-0.0059,-0.0059,-0.006,-0.006,-0.0038,-0.0038,0,0,0,0,0,0,0.0006,0.0002,-0.0006,-0.0007,-0.0006,-0.0018,-0.002,-0.0021,-0.0035,-0.0038,-0.0032,-0.0033,-0.0049,-0.0051,-0.0052,-0.0023,-0.006,-0.006,-0.006,-0.0039,-0.0038,-0.0037,0,0,0,0,0,0,0.0006,0.0005,-0.0005,-0.0003,-0.0005,-0.0018,-0.0018,-0.0021,-0.0024,-0.0037,-0.004,-0.0032,-0.005,-0.0051,-0.004,-0.0025,-0.006,-0.006,-0.004,-0.0039,-0.0038,0.002,0,0,0,0,0,0,0.0006,0.0005,0.0007,-0.0003,-0.0005,-0.0003,-0.0018,-0.0021,-0.0024,-0.0026,-0.0038,-0.004,-0.005,-0.0039,-0.0041,-0.0026,-0.0061,-0.0041,-0.0039,-0.0038,0.0018,0.0023,0.0029,0,0,0,0,0,0.0007,0.0011,0.0007,0.0006,-0.0002,-0.0002,-0.0004,-0.0015,-0.0024,-0.002,-0.0021,-0.004,-0.0031,-0.0039,-0.004,-0.0025,-0.0042,-0.004,-0.0038,0.0015,0.0022,0.0028,0,0,0,0,0,0,0.0016,0.0009,0.0005,0.0007,0.0005,-0.0005,-0.0004,-0.0012,-0.0011,-0.0011,-0.0026,-0.0027,-0.0012,-0.0027,-0.0035,-0.0016,-0.0041,-0.004,-0.0,0.0006,0.0012,0.0008,-0.0061,0,0,0,0,0,0.002,0.0022,0.0015,0.0018,0.0017,0.0007,0.0005,0.0001,-0.0001,-0.0002,-0.0009,-0.0012,-0.0006,-0.0006,-0.0006,0.0006,-0.0033,0.0013,0.0018,0.0023,0.0019,-0.0024,-0.0023,-0.0031,-0.0031,-0.0032,0,0,0.0023,0.0022,0.0022,0.0021,0.0016,0.0028,0.0005,0.0008,0.0026,-0.0003,0.0018,0.0008,0.0002,0.0019,0.0023,0.0009,0.0006,0.0025,0.0029,0.0022,-0.0022,-0.0021,-0.0021,-0.003,-0.003,-0.0031,0,0,0.0039,0.0032,0.004,0.0043,0.0043,0.0043,0.0045,0.004,0.0045,0.0064,0.0051,0.0051,0.0056,0.0055,0.0056,0.009,0.0038,0.0088,0.0112,0.0071,0.0071,0.0071,0.0025,0.002,0.0089,0.0089,0.0089,0,0.0045,0.0056,0.0044,0.0057,0.0066,0.0053,0.0072,0.008,0.0082,0.0089,0.0079,0.0078,0.0075,0.009,0.0106,0.0103,0.0064,0.009,0.0077,0.0076,0.0074,0.0028,0.0021,0.0092,0.0092,0.0091,0.0091,0,0.0068,0.008,0.0087,0.0103,0.0111,0.0125,0.0134,0.0145,0.0146,0.0147,0.0157,0.0145,0.014,0.0142,0.0139,0.0133,0.0103,0.009,0.0059,0.0079,0.0028,0.002,0.0096,0.0095,0.0094,0.0094,0,0,0.0079,0.0099,0.0104,0.0124,0.0139,0.0152,0.0183,0.0204,0.0221,0.0215,0.0223,0.0233,0.0205,0.0203,0.0187,0.0155,0.012,0.0121,0.0117,0.0073,0.0017,0.0017,0.0008,0.0098,0.0097,0.0096,-0.0013,0,0.0104,0.014,0.0146,0.0192,0.0213,0.0217,0.0247,0.0264,0.0271,0.0275,0.0253,0.0258,0.0237,0.0231,0.0196,0.014,0.0101,0.015,0.0007,0.0002,-0.0002,0.0,0.0093,-0.0019,-0.0021,-0.0023,-0.0024,0,0.0128,0.0153,0.0197,0.024,0.0249,0.0277,0.0316,0.0343,0.0345,0.0343,0.0326,0.0301,0.0268,0.0241,0.0137,0.0165,0.0097,0.0044,0.0038,0.0011,-0.0012,-0.0044,-0.0038,-0.0037,-0.0036,-0.0035,-0.0034,0,0.0148,0.0193,0.0233,0.0248,0.0288,0.0316,0.0342,0.0361,0.0392,0.0383,0.0383,0.0329,0.0303,0.0209,0.0111,0.0117,-0.0023,-0.0028,-0.0097,-0.0098,-0.0093,-0.0091,-0.0112,-0.0111,-0.0111,-0.0111,-0.0111,0,0.0175,0.0209,0.0247,0.0273,0.0328,0.0345,0.0401,0.0415,0.0433,0.0464,0.0418,0.041,0.0292,0.0206,0.0107,-0.0021,-0.003,-0.0098,-0.0126,-0.0064,-0.0058,-0.0099,-0.0096,-0.0115,-0.0114,-0.0113,-0.0113,0,0.0189,0.021,0.0262,0.0315,0.034,0.038,0.0451,0.0487,0.0493,0.0525,0.0523,0.0462,0.035,0.0221,0.0062,-0.0017,-0.0143,-0.0187,-0.0119,-0.014,-0.0193,-0.0186,-0.0276,-0.0277,-0.0277,-0.0278,-0.0278,0,0.0199,0.0226,0.0296,0.0333,0.0363,0.0427,0.0475,0.0515,0.0556,0.0559,0.0572,0.048,0.0421,0.0196,0.0051,-0.0154,-0.0174,-0.0247,-0.0211,-0.0192,-0.021,-0.0201,-0.0193,-0.028,-0.028,-0.028,-0.028,0,0.0222,0.0243,0.0284,0.0361,0.0423,0.0494,0.0565,0.0598,0.0638,0.0642,0.0619,0.0513,0.038,0.0206,0.0042,-0.01,-0.0204,-0.0256,-0.0255,-0.0221,-0.0198,-0.0213,-0.0204,-0.0283,-0.0283,-0.0282,-0.0282,0,0.024,0.0266,0.032,0.039,0.0464,0.0538,0.0578,0.0628,0.0668,0.0676,0.0661,0.0527,0.0449,0.0232,0.0081,-0.0062,-0.0091,-0.013,-0.0136,-0.0135,-0.0057,-0.0004,-0.0058,0,0,0,0,0,0.0259,0.0289,0.0349,0.0427,0.0498,0.0546,0.0628,0.0661,0.0696,0.0695,0.0687,0.057,0.0359,0.0261,0.0119,0.0052,-0.0132,-0.0121,-0.0184,-0.0298,-0.0294,-0.0226,0,0,0,0,0,0,0.0269,0.0319,0.0347,0.0442,0.0497,0.0588,0.064,0.0669,0.0671,0.068,0.0571,0.0531,0.0321,0.0439,0.0114,0.0069,0.0009,-0.0218,-0.0221,-0.0299,-0.0296,-0.0294,-0.0222,0,0,0,0,0]}]]